Dewpoint
74 74 73 73 72 71 71 72 71 71 70 67 68 70 68 71 73 71 72 73 75 75 75 76 76 76 74 75 76 76 75 74 74 73 74 74 73 72 71 71 71 72
75 75 75 74 74 73 72 72 73 71 72 71 69 69 71 71 72 71 72 73 74 75 75 75 76 77 76 74 75 75 75 75 74 73 74 74 74 73 72 72 71 72
74 74 74 73 72 73 70 72 73 72 70 70 69 70 70 71 72 73 73 73 73 73 75 75 75 76 75 75 75 75 74 75 75 73 74 75 73 73 74 70 70 71
74 74 73 72 72 72 73 72 72 73 71 71 69 67 68 68 72 73 74 74 74 74 73 74 75 74 75 75 76 74 74 75 75 75 74 74 75 74 72 73 71 70
74 74 73 72 72 74 74 73 71 72 72 71 70 70 70 72 72 72 73 73 74 73 73 73 74 73 74 75 76 75 73 73 74 75 75 74 75 75 73 73 73 72
75 75 75 73 73 74 74 73 72 72 72 69 70 69 70 71 71 72 73 73 72 71 69 71 73 73 73 74 75 75 73 71 71 75 75 75 73 73 71 72 73 73
73 74 73 73 73 73 74 74 74 73 72 70 71 70 70 70 71 73 73 72 71 72 69 71 74 73 73 74 75 75 75 74 73 73 74 75 75 74 71 72 74 74
74 73 73 73 72 73 73 74 73 73 73 72 69 71 71 70 72 72 72 72 71 71 72 70 73 74 71 72 74 74 75 72 73 74 74 75 75 75 74 72 73 74
73 73 73 73 72 72 72 72 73 73 73 72 69 70 71 71 72 72 73 73 73 72 73 71 73 72 72 72 73 74 74 72 71 73 74 74 74 74 74 75 73 73
73 73 72 72 71 71 71 72 71 72 72 72 71 68 70 72 72 73 73 75 73 73 73 74 73 73 73 72 72 73 74 74 73 73 73 73 73 73 73 73 72 73
72 71 72 72 71 71 71 71 69 70 71 71 71 69 69 72 73 74 75 75 73 73 74 74 74 74 74 72 71 72 73 73 74 74 73 74 74 74 74 74 73 72
72 71 71 71 71 70 70 70 68 68 70 71 71 70 69 70 73 72 73 75 75 74 74 76 76 75 76 74 71 71 72 72 73 74 73 73 73 73 74 74 73 73
71 71 71 72 72 71 70 69 68 66 67 70 70 70 68 68 71 73 73 74 75 75 74 75 76 76 76 76 74 72 72 73 72 72 73 73 73 72 72 72 72 72
72 71 71 73 73 74 71 69 68 66 67 69 71 70 68 68 68 71 71 72 74 75 75 76 77 76 77 77 76 73 72 73 73 72 71 73 73 73 72 69 68 69
75 73 73 73 73 73 72 70 69 68 69 70 72 71 68 68 68 68 71 72 73 75 75 75 75 76 76 77 76 75 72 71 73 73 72 72 72 71 71 71 68 66
76 75 74 74 73 73 74 72 70 70 67 69 71 72 71 71 71 69 69 71 72 74 75 74 74 75 75 71 73 75 74 70 72 74 74 72 72 72 70 70 69 67
76 75 75 75 75 74 75 74 73 71 71 73 73 73 73 74 71 69 68 70 71 72 73 73 73 73 70 67 67 70 74 73 71 73 74 74 72 73 73 70 68 68
76 76 76 76 76 76 76 75 73 73 74 74 72 73 75 71 70 70 71 69 70 72 72 72 73 71 65 66 66 66 71 75 71 70 72 73 73 71 72 72 69 66
77 76 76 76 76 77 77 76 76 74 73 72 72 73 73 74 74 71 71 71 70 72 71 72 72 68 64 64 65 65 66 71 71 71 69 71 72 73 72 72 73 71
77 77 76 77 77 77 77 76 75 75 73 72 72 74 75 74 72 73 73 74 72 73 74 72 72 67 63 63 63 64 65 68 72 69 70 70 71 71 72 73 73 73
77 77 77 77 77 77 78 77 76 76 74 73 72 73 75 75 74 74 74 74 72 71 72 71 70 64 62 61 62 62 63 66 73 70 69 71 71 72 74 74 75 74
77 77 77 77 77 77 77 77 76 77 76 74 73 71 74 75 75 74 74 74 74 72 70 71 70 62 61 61 60 61 62 71 74 73 72 71 71 72 73 75 75 75
77 77 77 77 77 77 77 76 77 77 76 76 74 72 72 73 75 73 75 74 74 74 73 72 71 66 60 59 59 60 63 73 74 73 74 74 74 73 74 74 75 76
77 77 77 77 77 77 76 76 76 76 76 76 74 72 70 72 73 74 75 75 74 74 73 73 71 69 57 58 58 58 66 74 74 74 74 74 74 74 75 75 76 76
76 77 77 76 77 76 76 76 76 76 76 76 74 73 72 72 73 74 74 75 73 73 74 73 72 68 57 57 57 57 66 75 75 74 74 74 74 74 75 75 76 76
76 77 77 76 77 77 76 77 76 76 75 75 75 74 72 70 70 72 73 73 73 72 72 73 73 73 66 55 56 56 60 75 75 74 74 74 74 74 74 76 75 75